• In Schweiz
  • Länderverzeichnis
  • Für 7 Tage
  • Wassertemperatur
  • Satellitenkarten
  • Wetterkarte
  • Widgets
  • user-avatar
    Anmelden

    Stündliche Wetter Vennesla

    Heute, 22 November, Mittwoch

    Zeit Temperatur Niederschläge Wind Luftdruck Luftfeuchtigkeit
    00:00 -4°C° 1,9 mm 9 m/S 729 mmHg 90%
    01:00 -4°C° 0 mm 9 m/S 728 mmHg 91%
    02:00 -4°C° 2,2 mm 10 m/S 727 mmHg 91%
    03:00 -4°C° 2,2 mm 10 m/S 726 mmHg 91%
    04:00 -3°C° 2,2 mm 10 m/S 725 mmHg 91%
    05:00 -3°C° 1,6 mm 10 m/S 725 mmHg 91%
    06:00 -3°C° 1,6 mm 10 m/S 724 mmHg 92%
    07:00 -3°C° 1,6 mm 10 m/S 723 mmHg 92%
    08:00 -1°C° 1,3 mm 9 m/S 723 mmHg 93%
    09:00 -1°C° 1,3 mm 8 m/S 723 mmHg 94%
    10:00 -1°C° 1,3 mm 7 m/S 722 mmHg 95%
    11:00 -1°C° 1,1 mm 6 m/S 722 mmHg 96%
    12:00 0°C° 1,1 mm 5 m/S 722 mmHg 96%
    13:00 0°C° 1,1 mm 4 m/S 722 mmHg 96%
    14:00 0°C° 1,9 mm 4 m/S 722 mmHg 96%
    15:00 +1°C° 1,9 mm 3 m/S 721 mmHg 96%
    16:00 0°C° 1,9 mm 3 m/S 721 mmHg 96%
    17:00 0°C° 2,9 mm 3 m/S 720 mmHg 97%
    18:00 0°C° 2,9 mm 3 m/S 719 mmHg 97%
    19:00 0°C° 2,9 mm 3 m/S 719 mmHg 98%
    20:00 0°C° 4,6 mm 5 m/S 718 mmHg 98%
    21:00 +1°C° 4,6 mm 6 m/S 718 mmHg 97%
    22:00 +2°C° 4,6 mm 7 m/S 717 mmHg 97%
    23:00 +2°C° 3,4 mm 8 m/S 717 mmHg 97%

    Morgen, 23 November, Donnerstag

    Zeit Temperatur Niederschläge Wind Luftdruck Luftfeuchtigkeit
    00:00 +3°C° 3,4 mm 9 m/S 717 mmHg 97%
    01:00 +5°C° 3,4 mm 9 m/S 716 mmHg 97%
    02:00 +5°C° 2,7 mm 10 m/S 716 mmHg 96%
    03:00 +5°C° 2,7 mm 10 m/S 715 mmHg 96%
    04:00 +4°C° 2,7 mm 11 m/S 715 mmHg 95%
    05:00 +4°C° 1,5 mm 11 m/S 715 mmHg 95%
    06:00 +6°C° 1,5 mm 11 m/S 714 mmHg 96%
    07:00 +6°C° 1,5 mm 11 m/S 714 mmHg 96%
    08:00 +6°C° 1,9 mm 11 m/S 714 mmHg 96%
    09:00 +6°C° 1,9 mm 11 m/S 714 mmHg 96%
    10:00 +4°C° 1,9 mm 11 m/S 714 mmHg 96%
    11:00 +6°C° 1,7 mm 11 m/S 714 mmHg 96%
    12:00 +6°C° 1,7 mm 11 m/S 714 mmHg 96%
    13:00 +6°C° 1,7 mm 11 m/S 714 mmHg 96%
    14:00 +5°C° 0,2 mm 10 m/S 714 mmHg 91%
    15:00 +5°C° 0,2 mm 10 m/S 715 mmHg 87%
    16:00 +3°C° 0,2 mm 9 m/S 715 mmHg 82%
    17:00 +3°C° 0,3 mm 10 m/S 716 mmHg 82%
    18:00 +2°C° 0,3 mm 11 m/S 716 mmHg 81%
    19:00 +2°C° 0,3 mm 12 m/S 717 mmHg 80%
    20:00 +2°C° 0,2 mm 12 m/S 718 mmHg 79%
    21:00 +2°C° 0,2 mm 11 m/S 719 mmHg 78%
    22:00 +1°C° 0,2 mm 11 m/S 720 mmHg 78%
    23:00 +1°C° 0,1 mm 11 m/S 721 mmHg 78%

    übermorgen, 24 November, Freitag

    Zeit Temperatur Niederschläge Wind Luftdruck Luftfeuchtigkeit
    00:00 +1°C° 0,1 mm 10 m/S 722 mmHg 78%
    01:00 +1°C° 0,1 mm 10 m/S 723 mmHg 78%
    02:00 +1°C° 0,1 mm 9 m/S 724 mmHg 79%
    03:00 0°C° 0,1 mm 8 m/S 724 mmHg 80%
    04:00 0°C° 0,1 mm 8 m/S 725 mmHg 81%
    05:00 0°C° 0,1 mm 7 m/S 725 mmHg 83%
    06:00 -1°C° 0,1 mm 7 m/S 725 mmHg 84%
    07:00 -1°C° 0,1 mm 6 m/S 726 mmHg 85%
    08:00 -1°C° 0,2 mm 6 m/S 726 mmHg 85%
    09:00 0°C° 0,2 mm 5 m/S 726 mmHg 85%
    10:00 0°C° 0,2 mm 5 m/S 727 mmHg 86%
    11:00 0°C° 0,1 mm 5 m/S 727 mmHg 84%
    12:00 0°C° 0,1 mm 5 m/S 727 mmHg 82%
    13:00 +1°C° 0,1 mm 5 m/S 727 mmHg 80%
    14:00 0°C° 0 mm 5 m/S 728 mmHg 80%
    15:00 0°C° 0 mm 5 m/S 728 mmHg 81%
    16:00 -1°C° 0 mm 5 m/S 728 mmHg 81%
    17:00 -2°C° 0 mm 6 m/S 729 mmHg 80%
    18:00 -2°C° 0 mm 6 m/S 729 mmHg 80%
    19:00 -2°C° 0 mm 6 m/S 729 mmHg 79%
    20:00 -2°C° 0 mm 6 m/S 730 mmHg 79%
    21:00 -2°C° 0 mm 6 m/S 730 mmHg 79%
    22:00 -2°C° 0 mm 6 m/S 730 mmHg 79%
    23:00 -2°C° 0,1 mm 6 m/S 730 mmHg 81%

    25 November, Samstag

    Zeit Temperatur Niederschläge Wind Luftdruck Luftfeuchtigkeit
    00:00 -1°C° 0,1 mm 5 m/S 731 mmHg 82%
    01:00 -2°C° 0,1 mm 5 m/S 731 mmHg 83%
    02:00 -2°C° 0,2 mm 5 m/S 730 mmHg 85%
    03:00 -2°C° 0,2 mm 5 m/S 730 mmHg 86%
    04:00 -2°C° 0,2 mm 5 m/S 730 mmHg 88%
    05:00 -2°C° 0,1 mm 4 m/S 730 mmHg 88%
    06:00 -2°C° 0,1 mm 4 m/S 730 mmHg 88%
    07:00 -2°C° 0,1 mm 3 m/S 729 mmHg 89%
    08:00 -1°C° 0,1 mm 3 m/S 729 mmHg 88%
    09:00 -1°C° 0,1 mm 3 m/S 729 mmHg 88%
    10:00 -1°C° 0,1 mm 2 m/S 729 mmHg 87%
    11:00 -1°C° 0,1 mm 2 m/S 729 mmHg 85%
    12:00 +1°C° 0,1 mm 2 m/S 729 mmHg 84%
    13:00 +2°C° 0,1 mm 2 m/S 729 mmHg 83%
    14:00 +1°C° 0 mm 2 m/S 728 mmHg 84%
    15:00 -1°C° 0 mm 2 m/S 728 mmHg 85%
    16:00 -2°C° 0 mm 2 m/S 728 mmHg 86%
    17:00 -2°C° 0 mm 2 m/S 728 mmHg 86%
    18:00 -2°C° 0 mm 2 m/S 728 mmHg 86%
    19:00 -2°C° 0 mm 2 m/S 728 mmHg 86%
    20:00 -2°C° 0,1 mm 2 m/S 728 mmHg 87%
    21:00 -3°C° 0,1 mm 2 m/S 727 mmHg 87%
    22:00 -3°C° 0,1 mm 2 m/S 727 mmHg 87%
    23:00 -3°C° 0,1 mm 2 m/S 727 mmHg 87%

    26 November, Sonntag

    Zeit Temperatur Niederschläge Wind Luftdruck Luftfeuchtigkeit
    00:00 -3°C° 0,1 mm 2 m/S 727 mmHg 88%
    01:00 -3°C° 0,1 mm 2 m/S 726 mmHg 88%
    02:00 -3°C° 0 mm 2 m/S 726 mmHg 88%
    03:00 -3°C° 0 mm 2 m/S 725 mmHg 88%
    04:00 -2°C° 0 mm 2 m/S 725 mmHg 88%
    05:00 -2°C° 0,1 mm 2 m/S 725 mmHg 89%
    06:00 -2°C° 0,1 mm 2 m/S 725 mmHg 89%
    07:00 -1°C° 0,1 mm 2 m/S 724 mmHg 90%
    08:00 -1°C° 0,3 mm 2 m/S 725 mmHg 91%
    09:00 -1°C° 0,3 mm 2 m/S 725 mmHg 92%
    10:00 -1°C° 0,3 mm 2 m/S 725 mmHg 93%
    11:00 +1°C° 0,2 mm 2 m/S 725 mmHg 92%
    12:00 +1°C° 0,2 mm 3 m/S 724 mmHg 92%
    13:00 0°C° 0,2 mm 4 m/S 724 mmHg 92%
    14:00 0°C° 0,1 mm 5 m/S 724 mmHg 91%
    15:00 +1°C° 0,1 mm 6 m/S 724 mmHg 89%
    16:00 +1°C° 0,1 mm 6 m/S 724 mmHg 87%
    17:00 -1°C° 0 mm 7 m/S 723 mmHg 88%
    18:00 -1°C° 0 mm 7 m/S 723 mmHg 88%
    19:00 -1°C° 0 mm 7 m/S 722 mmHg 88%
    20:00 0°C° 0,2 mm 7 m/S 722 mmHg 89%
    21:00 0°C° 0,2 mm 7 m/S 722 mmHg 90%
    22:00 0°C° 0,2 mm 7 m/S 721 mmHg 91%
    23:00 0°C° 0,1 mm 8 m/S 721 mmHg 88%

    27 November, Montag

    Zeit Temperatur Niederschläge Wind Luftdruck Luftfeuchtigkeit
    00:00 0°C° 0,1 mm 8 m/S 722 mmHg 85%
    01:00 0°C° 0,1 mm 9 m/S 722 mmHg 82%
    02:00 -1°C° 0 mm 9 m/S 722 mmHg 76%
    03:00 -1°C° 0 mm 9 m/S 723 mmHg 69%
    04:00 -3°C° 0 mm 10 m/S 724 mmHg 63%
    05:00 -3°C° 0 mm 9 m/S 725 mmHg 64%
    06:00 -3°C° 0 mm 9 m/S 726 mmHg 65%
    07:00 -2°C° 0 mm 8 m/S 726 mmHg 66%
    08:00 -2°C° 0 mm 8 m/S 727 mmHg 69%
    09:00 -2°C° 0 mm 7 m/S 728 mmHg 71%
    10:00 -2°C° 0 mm 7 m/S 728 mmHg 74%
    11:00 -2°C° 0 mm 6 m/S 729 mmHg 75%
    12:00 -1°C° 0 mm 6 m/S 729 mmHg 77%
    13:00 -1°C° 0 mm 6 m/S 729 mmHg 78%
    14:00 0°C° 0 mm 5 m/S 730 mmHg 81%
    15:00 -1°C° 0 mm 4 m/S 730 mmHg 84%
    16:00 -1°C° 0 mm 3 m/S 730 mmHg 86%
    17:00 -1°C° 0 mm 3 m/S 730 mmHg 86%
    18:00 -2°C° 0 mm 2 m/S 729 mmHg 87%
    19:00 0°C° 0 mm 1 m/S 729 mmHg 87%
    20:00 -2°C° 0,1 mm 2 m/S 729 mmHg 86%
    21:00 -2°C° 0,1 mm 3 m/S 729 mmHg 86%
    22:00 -2°C° 0,1 mm 3 m/S 728 mmHg 86%
    23:00 -4°C° 0,5 mm 5 m/S 728 mmHg 86%
    Mehr zeigen